Other Public Products
Issued by NWS Grand Forks, ND

Home | Current Version | Previous Version | Graphics & Text | Print | Product List | Glossary On
Versions: 1 2 3 4 5 6 7 8 9 10 11 12 13 14 15 16 17 18 19 20 21 22 23 24 25 26 27 28 29 30 31 32 33 34 35 36 37 38 39 40 41 42 43 44 45 46 47 48 49 50
000
FPUS83 KFGF 130231
OPUFGF
PRAIRIE TO PINES WEATHER ROUNDUP
NATIONAL WEATHER SERVICE EASTERN NORTH DAKOTA/GRAND FORKS ND
900 PM CDT SAT JUL 12 2014

 **SATELLITE DATA USED TO AUGMENT SKY COVER AT AUTOMATED STATIONS**
 *****  WEATHER ACROSS EASTERN NORTH DAKOTA  *****

CITY           SKY/WX    TMP DP  RH WIND       PRES   REMARKS
GRAND FORKS    LGT RAIN  61  58  90 NW5       29.93F
GRAND FORKS AF NOT AVBL
GRAND CITY NWS   N/A     59 N/A N/A NW1         N/A
BUXTON         NOT AVBL
DEVILS LAKE    PTCLDY    63  54  72 NW5       29.96S
FARGO          PTCLDY    68  53  58 N16       29.94R
WAHPETON ARPT  CLEAR     70  57  64 W7        29.92F
$$

 *****  WEATHER ACROSS CENTRAL AND WESTERN NORTH DAKOTA  *****

CITY           SKY/WX    TMP DP  RH WIND       PRES   REMARKS
JAMESTOWN      CLEAR     72  52  49 W9        29.96S
BISMARCK       CLEAR     77  54  44 NW10      30.03S
MINOT          PTCLDY    71  54  54 NW10      30.01R
MINOT AFB      NOT AVBL
GARRISON         N/A     71  58  63 NW8       30.02R
WILLISTON      CLEAR     77  51  40 N10       30.08R
DICKINSON      CLEAR     72  52  49 N8        30.09R
HETTINGER      CLEAR     73  60  63 NW6       30.11S
$$

 *****  OTHER OBSERVATIONS NORTHEAST NORTH DAKOTA  *****

CITY           SKY/WX    TMP DP  RH WIND       PRES   REMARKS
WALHALLA         N/A     61  61 100 N5          N/A
LANGDON        FAIR      57  55  94 CALM      29.96S
CAVALIER       FAIR      63  57  82 N3        29.94S
GRAFTON        FAIR      59  59 100 N6        29.94S
CANDO          FAIR      61  59  94 W7        29.98R
FORT TOTTEN      N/A     63  56  79 N2        29.95S
ROLLA          FAIR      59  54  82 NW8       30.00R
RUGBY          FAIR      64  59  82 NW3       29.99R
 ***** THE ABOVE OBSERVATIONS ARE NON NWS ARE NOT QUALITY
        CONTROLLED AND MAY MIS-REPORT RAIN FOR SNOW...
$$

 *****  OTHER OBSERVATIONS SOUTHEAST NORTH DAKOTA *****

CITY           SKY/WX    TMP DP  RH WIND       PRES   REMARKS
COOPERSTOWN    NOT AVBL
VALLEY CITY    MOCLDY    70  54  56 N18G25    29.97R
OAKES          NOT AVBL
GWINNER        PTCLDY    75  59  57 W8        29.97S
SHEYENNE NWR     N/A     76  61  58 W3        29.95
BUFFALO          N/A     67  44  43 N18         N/A
WYNDMERE       NOT AVBL
 ***** THE ABOVE OBSERVATIONS ARE NON NWS ARE NOT QUALITY
       CONTROLLED AND MAY MIS-REPORT RAIN FOR SNOW...
$$

  *****  WEATHER ACROSS NORTHERN MINNESOTA  *****

CITY           SKY/WX    TMP DP  RH WIND       PRES   REMARKS
FLAG ISLAND    PTCLDY    61  52  72 NW20      29.88R
WARROAD        MOCLDY    57  54  88 W5        29.91R
ROSEAU         MOCLDY    57  54  88 W7        29.91R
HALLOCK        PTCLDY    61  57  88 NW3       29.93R
THF RVR FALLS  CLOUDY    59  55  88 NW12      29.93R
HALSTAD          N/A     64  52  63 N13         N/A
FOSSTON        RAIN      57  54  88 NW10      29.95S
BAUDETTE       CLOUDY    58  55  90 VRB3      29.89S
WASKISH        LGT RAIN  59  55  88 W15G22    29.89S
CROOKSTON      DRIZZLE   59  57  94 NW8       29.95R
$$
  *****  WEATHER ACROSS CENTRAL AND WEST MINNESOTA  *****

CITY           SKY/WX    TMP DP  RH WIND       PRES   REMARKS
BEMIDJI        MOCLDY    62  51  67 NW12      29.93R
PARK RAPIDS    CLEAR     67  61  81 SW7       29.90F
WADENA         PTCLDY    66  61  82 SW5       29.91F
DETROIT LAKES  CLEAR     72  55  56 NW7       29.93S
MOORHEAD       CLEAR     68  54  60 N17G28    29.95R
FERGUS FALLS   CLEAR     72  57  60 W7        29.91F
ELBOW LAKE     FAIR      72  61  68 W8        29.93F
MORRIS MN      CLEAR     70  63  78 W7        29.94S
STAPLES        PTCLDY    64  61  88 SW5       29.91F
WHEATON        CLEAR     70  63  78 SW3       29.95F
$$
  *****  WEATHER ELSEWHERE ACROSS MINNESOTA  *****

CITY           SKY/WX    TMP DP  RH WIND       PRES   REMARKS
DULUTH         PTCLDY    68  59  73 SW9       29.86F
INTRNTL FALLS  CLOUDY    58  52  80 W6        29.84F
ELY            CLEAR     66  57  72 W5        29.83S
CLOQUET        PTCLDY    66  57  72 SW6       29.87F
BRAINERD       CLEAR     74  60  61 W6        29.91F
HIBBING        CLEAR     68  54  60 SW3       29.85F
ALEXANDRIA     CLEAR     70  62  76 SW6       29.95F
SAINT CLOUD    CLEAR     72  60  66 W6        29.93F
MINNEAPOLIS    PTCLDY    72  64  76 W6        29.93S
$$

  *****  WEATHER ACROSS SOUTH DAKOTA  *****

CITY           SKY/WX    TMP DP  RH WIND       PRES   REMARKS
SIOUX FALLS    PTCLDY    74  66  76 N7        30.01S
BROOKINGS      NOT AVBL
WATERTOWN      CLEAR     70  64  81 W5        30.00F
HURON          CLEAR     75  66  73 CALM      30.01S
SISSETON         N/A     75  65  70 NW6       29.94F
ABERDEEN       MOCLDY    72  63  73 W6        29.99S
MITCHELL       PTCLDY    76  66  71 N5        30.03S
PIERRE         CLEAR     76  64  66 W3        30.04S
MOBRIDGE       PTCLDY    69  64  84 N6        30.01R
RAPID CITY     PTCLDY    72  65  78 W7        30.16S
$$

  *****  SOME WEATHER IN NEARBY STATES *****

CITY           SKY/WX    TMP DP  RH WIND       PRES   REMARKS
GLASGOW MT     NOT AVBL
GREAT FALLS MT SUNNY     83  40  21 NE7       30.19S
CHEYENNE WY    PTCLDY    72  52  49 E9        30.34R
SCOTTSBLUFF NE CLEAR     78  63  59 SE6       30.20R
OMAHA NE       MOCLDY    76  68  76 N12       29.98R
DES MOINES IA  MOCLDY    74  67  78 N8        29.96R
DAVENPORT IA   LGT RAIN  76  72  87 W18G35    29.88R
CHICAGO IL     CLOUDY    78  71  79 S9        29.87F
EAU CLAIRE WI  PTCLDY    66  65  96 S6        29.90F
LA CROSSE WI   PTCLDY    67  65  93 CALM      29.90F
$$

  *****  SOME NATIONAL WEATHER *****

CITY           SKY/WX    TMP DP  RH WIND       PRES   REMARKS
LA GUARDIA NY  MOCLDY    74  63  68 S13       30.14S
RALEIGH NC     PTCLDY    79  66  64 SE3       30.16R
ATLANTA GA     PTCLDY    83  67  58 CALM      30.14S
NEW ORLEANS LA MOCLDY    83  73  72 CALM      30.07R
OKLAHOMA CITY  CLEAR     81  56  42 S8        30.02F
ALBUQUERQUE NM PTCLDY    85  50  29 E7        30.14R
SALT LAKE CITY PTCLDY    91  46  21 N10       30.10S
LOS ANGELES CA PTSUNNY   70  61  73 W13       29.93S
BOISE ID       SUNNY     98  34  10 N10       30.03S HX  92
SEATTLE WA     MOSUNNY   89  55  31 N9        30.07S
$$

*** WEATHER ACROSS MANITOBA...SASKATCHEWAN AND ONTARIO ***
                ***ONTARIO***

CITY           SKY/WX    TMP DP  RH WIND       PRES   REMARKS
GERALDTON      PTCLDY    66  52  59 SW9       29.75F
THUNDER BAY    PTCLDY    64  55  72 SW6       29.77F
SIOUX LOOKOUT  MOCLDY    55  54  94 W12       29.76F
TORONTO        CLOUDY    75  61  60 SE7       29.99F
BIG TROUT LK   LGT RAIN  55  54  94 SW8       29.54S
PICKLE LAKE    LGT RAIN  54  52  94 SW8       29.67F
DRYDEN         MOCLDY    55  54  94 W14G20    29.80R
KENORA         PTCLDY    55  50  82 NW9       29.87R
$$
                *** MANITOBA***

CITY           SKY/WX    TMP DP  RH WIND       PRES   REMARKS
BRANDON        PTCLDY    64  48  55 NW9       29.97R
DAUPHIN        PTCLDY    64  45  48 NW8       29.93R
ISLAND LAKE    MOCLDY   N/A N/A N/A NW17G29     N/A
PILOT MOUND      N/A     61  57  88 NW5         N/A
THE PAS        MOCLDY    61  46  59 NW16      29.90
THOMPSON       LGT RAIN  50  50 100 NW14G21   29.68R FOG
WINNIPEG       PTCLDY    61  50  67 W2        29.92S
LYNN LAKE      LGT RAIN  50  46  87 NW20G35   29.88R FOG
CHURCHILL      LGT RAIN  43  41  93 N21G28    29.58R FOG
GILLAM         MOCLDY    50  48  93 N14       29.55R
$$
                ***SASKATCHEWAN***

CITY           SKY/WX    TMP DP  RH WIND       PRES   REMARKS
ESTEVAN        NOT AVBL
KINDERSLEY     MOSUNNY   72  55  56 N10       30.16R
LLOYDMINSTER   MOSUNNY   70  54  56 NW5       30.16S
PRINCE ALBERT  SUNNY     64  41  42 N10G18    30.07R
REGINA         CLEAR     66  50  55 N10       30.08



USA.gov is the U.S. government's official web portal to all federal, state and local government web resources and services.